Terminal Aerodrome Forecast
Issued by NWS

Home | Current Version | Previous Version | Text Only | Print | Product List | Glossary On
Versions: 1 2 3 4 5 6 7 8 9 10 11 12 13 14 15 16 17 18 19 20 21 22
000
FTUS41 KBGM 230200 AAA
TAFELM
TAF AMD
KELM 230253Z 2303/2324 24008KT P6SM -SHRA SCT025 OVC050
      WS020/24045KT
     FM230800 24004KT P6SM OVC035
     FM232000 17005KT P6SM SCT035 BKN080=

USA.gov is the U.S. government's official web portal to all federal, state and local government web resources and services.